Regional Weather Roundup
Issued by NWS

Home | Current Version | Previous Version | Graphics & Text | Print | Product List | Glossary On
Versions: 1 2 3 4 5 6 7 8 9 10 11 12 13 14 15 16 17 18 19 20 21 22 23 24 25 26 27 28 29 30 31 32 33 34 35 36 37 38 39 40 41 42 43 44 45 46 47 48 49 50
000
ASUS43 KTOP 241459
RWRKS

WEATHER ROUNDUP FOR KANSAS
NATIONAL WEATHER SERVICE GOODLAND KS
1000 AM CDT WED AUG 24 2016

NOTE:  "FAIR" INDICATES FEW OR NO CLOUDS BELOW 12,000 FEET WITH NO
SIGNIFICANT WEATHER AND/OR OBSTRUCTIONS TO VISIBILITY.

KSZ001>006-013>018-027>032-041>047-241600-
NORTHWEST KANSAS

CITY           SKY/WX    TMP DP  RH WIND       PRES   REMARKS
GOODLAND       CLOUDY    66  48  52 N10       30.15R
HAYS           CLOUDY    72  55  56 N16       30.01S
HILL CITY      CLOUDY    70  54  56 E6        30.04R
RUSSELL        PTSUNNY   72  66  81 N7        30.00R
$$

KSZ061>065-074>080-084>089-241600-
SOUTHWEST KANSAS

CITY           SKY/WX    TMP DP  RH WIND       PRES   REMARKS
DODGE CITY     CLOUDY    75  61  61 N5        30.03R
ELKHART          N/A     69  52  54 W6          N/A
GARDEN CITY    CLOUDY    70  60  70 CALM      30.02R
GREAT BEND     CLOUDY    81  61  50 S16       30.00R
LIBERAL        CLOUDY    72  64  78 W16       30.03S
$$

KSZ066>073-081>083-090>101-241600-
SOUTHEAST KANSAS

CITY           SKY/WX    TMP DP  RH WIND       PRES   REMARKS
CHANUTE        PTSUNNY   81  72  74 S15       30.02R
COFFEYVILLE    SUNNY     86  72  62 SW13      30.03R
HUTCHINSON     RAIN      72  68  87 W6        30.00S
NEWTON         CLOUDY    72  69  90 SW6       30.02R
PARSONS        CLOUDY    83  72  69 SW12      30.04R
WICHITA INTL   CLOUDY    77  67  71 SW9       30.00S
WICHITA JABRA  MOSUNNY   79  68  69 S15       30.00S
WINFIELD       CLOUDY    79  68  69 S10       30.03R
$$

KSZ007>012-019>026-033>040-048>060-102>105-241600-
NORTHEAST KANSAS

CITY           SKY/WX    TMP DP  RH WIND       PRES   REMARKS
CONCORDIA      CLOUDY    76  67  73 SW6       29.97R
EMPORIA        CLOUDY    78  71  79 S9        30.00S
LAWRENCE       LGT RAIN  77  69  76 SW7       29.98R
MANHATTAN      CLOUDY    80  68  66 SW8       29.95R
OLATHE IND     LGT RAIN  76  73  91 SW8       30.00S
OLATHE EXE     CLOUDY    76  71  85 S8        29.99S
SALINA         CLOUDY    82  64  54 SW15      29.96S
TOPEKA BILLARD CLOUDY    79  71  76 S5        29.97R
TOPEKA FORBES  CLOUDY    80  71  74 S12       29.97R
$$




USA.gov is the U.S. government's official web portal to all federal, state and local government web resources and services.